owner,sensor,date,latitude,longitude,vertical_datum,sea_water_practical_salinity,qcFlag 
NERRS,ioos:station:NOAA.NERRS:apaebwq:1,2017-01-01T00:45:00Z,29.7858,-84.8752,2.23,14.0,1111122 
NERRS,ioos:station:NOAA.NERRS:apaebwq:1,2017-01-01T01:45:00Z,29.7858,-84.8752,2.17,14.1,1111122 
NERRS,ioos:station:NOAA.NERRS:apaebwq:1,2017-01-01T02:45:00Z,29.7858,-84.8752,2.13,14.1,1111122 
NERRS,ioos:station:NOAA.NERRS:apaebwq:1,2017-01-01T04:45:00Z,29.7858,-84.8752,2.14,13.9,1111122 
NERRS,ioos:station:NOAA.NERRS:apaebwq:1,2017-01-01T05:45:00Z,29.7858,-84.8752,2.18,13.8,1111122 
NERRS,ioos:station:NOAA.NERRS:apaebwq:1,2017-01-01T06:45:00Z,29.7858,-84.8752,2.28,13.7,1111122 
NERRS,ioos:station:NOAA.NERRS:apaebwq:1,2017-01-01T07:45:00Z,29.7858,-84.8752,2.35,14.4,1111122 
NERRS,ioos:station:NOAA.NERRS:apaebwq:1,2017-01-01T08:45:00Z,29.7858,-84.8752,2.41,16.5,1111122 
NERRS,ioos:station:NOAA.NERRS:apaebwq:1,2017-01-01T09:45:00Z,29.7858,-84.8752,2.43,17.5,1111122 
NERRS,ioos:station:NOAA.NERRS:apaebwq:1,2017-01-01T10:45:00Z,29.7858,-84.8752,2.38,17.7,1111122 
NERRS,ioos:station:NOAA.NERRS:apaebwq:1,2017-01-01T11:45:00Z,29.7858,-84.8752,2.28,17.6,1111122 
NERRS,ioos:station:NOAA.NERRS:apaebwq:1,2017-01-01T12:45:00Z,29.7858,-84.8752,2.19,14.0,1111122 
NERRS,ioos:station:NOAA.NERRS:apaebwq:1,2017-01-01T13:45:00Z,29.7858,-84.8752,2.12,13.8,1111122 
NERRS,ioos:station:NOAA.NERRS:apaebwq:1,2017-01-01T14:45:00Z,29.7858,-84.8752,2.02,13.8,1111122 
NERRS,ioos:station:NOAA.NERRS:apaebwq:1,2017-01-01T15:45:00Z,29.7858,-84.8752,1.95,13.9,1111122 
NERRS,ioos:station:NOAA.NERRS:apaebwq:1,2017-01-01T16:45:00Z,29.7858,-84.8752,1.89,13.9,1111122 
NERRS,ioos:station:NOAA.NERRS:apaebwq:1,2017-01-01T17:45:00Z,29.7858,-84.8752,1.86,13.8,1111122 
NERRS,ioos:station:NOAA.NERRS:apaebwq:1,2017-01-01T18:45:00Z,29.7858,-84.8752,1.95,13.8,1111122 
NERRS,ioos:station:NOAA.NERRS:apaebwq:1,2017-01-01T19:45:00Z,29.7858,-84.8752,2.07,13.9,1111122 
NERRS,ioos:station:NOAA.NERRS:apaebwq:1,2017-01-01T20:45:00Z,29.7858,-84.8752,2.21,13.6,1111122 
NERRS,ioos:station:NOAA.NERRS:apaebwq:1,2017-01-01T21:45:00Z,29.7858,-84.8752,2.31,13.9,1111122 
NERRS,ioos:station:NOAA.NERRS:apaebwq:1,2017-01-01T23:45:00Z,29.7858,-84.8752,2.43,14.4,1111122 
NERRS,ioos:station:NOAA.NERRS:apaebwq:1,2017-01-02T00:45:00Z,29.7858,-84.8752,2.41,14.5,1111122 
NERRS,ioos:station:NOAA.NERRS:apaebwq:1,2017-01-02T01:45:00Z,29.7858,-84.8752,2.34,14.2,1111122 
NERRS,ioos:station:NOAA.NERRS:apaebwq:1,2017-01-02T02:45:00Z,29.7858,-84.8752,2.28,13.7,1111122 
NERRS,ioos:station:NOAA.NERRS:apaebwq:1,2017-01-02T03:45:00Z,29.7858,-84.8752,2.28,13.5,1111122 
NERRS,ioos:station:NOAA.NERRS:apaebwq:1,2017-01-02T04:45:00Z,29.7858,-84.8752,2.29,13.8,1111122 
NERRS,ioos:station:NOAA.NERRS:apaebwq:1,2017-01-02T05:45:00Z,29.7858,-84.8752,2.3,13.7,1111122 
NERRS,ioos:station:NOAA.NERRS:apaebwq:1,2017-01-02T06:45:00Z,29.7858,-84.8752,2.3,13.6,1111122 
NERRS,ioos:station:NOAA.NERRS:apaebwq:1,2017-01-02T07:45:00Z,29.7858,-84.8752,2.34,13.8,1111122 
NERRS,ioos:station:NOAA.NERRS:apaebwq:1,2017-01-02T08:45:00Z,29.7858,-84.8752,2.42,13.6,1111122 
NERRS,ioos:station:NOAA.NERRS:apaebwq:1,2017-01-02T09:45:00Z,29.7858,-84.8752,2.44,13.7,1111122 
NERRS,ioos:station:NOAA.NERRS:apaebwq:1,2017-01-02T10:45:00Z,29.7858,-84.8752,2.39,13.7,1111122 
NERRS,ioos:station:NOAA.NERRS:apaebwq:1,2017-01-02T11:45:00Z,29.7858,-84.8752,2.29,13.6,1111122 
NERRS,ioos:station:NOAA.NERRS:apaebwq:1,2017-01-02T12:45:00Z,29.7858,-84.8752,2.17,13.1,1111122 
NERRS,ioos:station:NOAA.NERRS:apaebwq:1,2017-01-02T13:45:00Z,29.7858,-84.8752,2.07,13.7,1111122 
NERRS,ioos:station:NOAA.NERRS:apaebwq:1,2017-01-02T14:45:00Z,29.7858,-84.8752,1.98,13.7,1111122 
NERRS,ioos:station:NOAA.NERRS:apaebwq:1,2017-01-02T15:45:00Z,29.7858,-84.8752,1.88,13.7,1111122 
NERRS,ioos:station:NOAA.NERRS:apaebwq:1,2017-01-02T16:45:00Z,29.7858,-84.8752,1.8,13.5,1111122 
NERRS,ioos:station:NOAA.NERRS:apaebwq:1,2017-01-02T17:45:00Z,29.7858,-84.8752,1.73,13.8,1111122 
NERRS,ioos:station:NOAA.NERRS:apaebwq:1,2017-01-02T18:45:00Z,29.7858,-84.8752,1.74,13.9,1111122 
NERRS,ioos:station:NOAA.NERRS:apaebwq:1,2017-01-02T19:45:00Z,29.7858,-84.8752,1.83,13.6,1111122 
NERRS,ioos:station:NOAA.NERRS:apaebwq:1,2017-01-02T20:45:00Z,29.7858,-84.8752,1.97,13.3,1111122 
NERRS,ioos:station:NOAA.NERRS:apaebwq:1,2017-01-02T21:45:00Z,29.7858,-84.8752,2.1,13.3,1111122 
NERRS,ioos:station:NOAA.NERRS:apaebwq:1,2017-01-02T22:45:00Z,29.7858,-84.8752,2.21,12.8,1111122 
NERRS,ioos:station:NOAA.NERRS:apaebwq:1,2017-01-02T23:45:00Z,29.7858,-84.8752,2.27,13.2,1111122 
NERRS,ioos:station:NOAA.NERRS:apaebwq:1,2017-01-03T00:45:00Z,29.7858,-84.8752,2.28,13.2,1111122 
NERRS,ioos:station:NOAA.NERRS:apaebwq:1,2017-01-03T01:45:00Z,29.7858,-84.8752,2.22,13.6,1111122 
NERRS,ioos:station:NOAA.NERRS:apaebwq:1,2017-01-03T02:45:00Z,29.7858,-84.8752,2.15,13.2,1111122 
NERRS,ioos:station:NOAA.NERRS:apaebwq:1,2017-01-03T03:45:00Z,29.7858,-84.8752,2.14,13.5,1111122 
NERRS,ioos:station:NOAA.NERRS:apaebwq:1,2017-01-03T04:45:00Z,29.7858,-84.8752,2.15,13.4,1111122 
NERRS,ioos:station:NOAA.NERRS:apaebwq:1,2017-01-03T05:45:00Z,29.7858,-84.8752,2.08,13.3,1111122 
NERRS,ioos:station:NOAA.NERRS:apaebwq:1,2017-01-03T06:45:00Z,29.7858,-84.8752,2.09,13.4,1111122 
NERRS,ioos:station:NOAA.NERRS:apaebwq:1,2017-01-03T07:45:00Z,29.7858,-84.8752,2.19,13.1,1111122 
NERRS,ioos:station:NOAA.NERRS:apaebwq:1,2017-01-03T08:45:00Z,29.7858,-84.8752,2.24,12.9,1111122 
NERRS,ioos:station:NOAA.NERRS:apaebwq:1,2017-01-03T09:45:00Z,29.7858,-84.8752,2.3,12.4,1111122 
NERRS,ioos:station:NOAA.NERRS:apaebwq:1,2017-01-03T10:45:00Z,29.7858,-84.8752,2.34,13.1,1111122 
NERRS,ioos:station:NOAA.NERRS:apaebwq:1,2017-01-03T11:45:00Z,29.7858,-84.8752,2.29,13.1,1111122 
NERRS,ioos:station:NOAA.NERRS:apaebwq:1,2017-01-03T12:45:00Z,29.7858,-84.8752,2.18,13.3,1111122 
NERRS,ioos:station:NOAA.NERRS:apaebwq:1,2017-01-03T13:45:00Z,29.7858,-84.8752,2.13,13.0,1111122 
NERRS,ioos:station:NOAA.NERRS:apaebwq:1,2017-01-03T14:45:00Z,29.7858,-84.8752,2.03,13.3,1111122 
NERRS,ioos:station:NOAA.NERRS:apaebwq:1,2017-01-03T15:45:00Z,29.7858,-84.8752,1.95,13.2,1111122 
NERRS,ioos:station:NOAA.NERRS:apaebwq:1,2017-01-03T16:45:00Z,29.7858,-84.8752,1.86,12.7,1111122 
NERRS,ioos:station:NOAA.NERRS:apaebwq:1,2017-01-03T17:45:00Z,29.7858,-84.8752,1.78,12.8,1111122 
NERRS,ioos:station:NOAA.NERRS:apaebwq:1,2017-01-03T18:45:00Z,29.7858,-84.8752,1.72,12.6,1111122 
NERRS,ioos:station:NOAA.NERRS:apaebwq:1,2017-01-03T19:45:00Z,29.7858,-84.8752,1.79,12.4,1111122 
NERRS,ioos:station:NOAA.NERRS:apaebwq:1,2017-01-03T20:45:00Z,29.7858,-84.8752,1.87,11.9,1111122 
NERRS,ioos:station:NOAA.NERRS:apaebwq:1,2017-01-03T21:45:00Z,29.7858,-84.8752,1.94,11.9,1111122 
NERRS,ioos:station:NOAA.NERRS:apaebwq:1,2017-01-03T22:45:00Z,29.7858,-84.8752,2.05,10.6,1111122 
NERRS,ioos:station:NOAA.NERRS:apaebwq:1,2017-01-03T23:45:00Z,29.7858,-84.8752,2.14,11.0,1111122 
NERRS,ioos:station:NOAA.NERRS:apaebwq:1,2017-01-04T00:45:00Z,29.7858,-84.8752,2.19,10.9,1111122 
NERRS,ioos:station:NOAA.NERRS:apaebwq:1,2017-01-04T01:45:00Z,29.7858,-84.8752,2.18,12.2,1111122 
NERRS,ioos:station:NOAA.NERRS:apaebwq:1,2017-01-04T02:45:00Z,29.7858,-84.8752,2.13,12.4,1111122 
NERRS,ioos:station:NOAA.NERRS:apaebwq:1,2017-01-04T03:45:00Z,29.7858,-84.8752,2.03,12.1,1111122 
NERRS,ioos:station:NOAA.NERRS:apaebwq:1,2017-01-04T04:45:00Z,29.7858,-84.8752,1.96,12.1,1111122 
NERRS,ioos:station:NOAA.NERRS:apaebwq:1,2017-01-04T05:45:00Z,29.7858,-84.8752,1.9,12.2,1111122 
NERRS,ioos:station:NOAA.NERRS:apaebwq:1,2017-01-04T06:45:00Z,29.7858,-84.8752,1.88,12.3,1111122 
NERRS,ioos:station:NOAA.NERRS:apaebwq:1,2017-01-04T07:45:00Z,29.7858,-84.8752,1.92,12.2,1111122 
NERRS,ioos:station:NOAA.NERRS:apaebwq:1,2017-01-04T08:45:00Z,29.7858,-84.8752,1.96,12.4,1111122 
NERRS,ioos:station:NOAA.NERRS:apaebwq:1,2017-01-04T09:45:00Z,29.7858,-84.8752,2.03,12.4,1111122 
NERRS,ioos:station:NOAA.NERRS:apaebwq:1,2017-01-04T10:45:00Z,29.7858,-84.8752,2.09,12.4,1111122 
NERRS,ioos:station:NOAA.NERRS:apaebwq:1,2017-01-04T11:45:00Z,29.7858,-84.8752,2.12,12.5,1111122 
NERRS,ioos:station:NOAA.NERRS:apaebwq:1,2017-01-04T12:45:00Z,29.7858,-84.8752,2.1,13.0,1111122 
NERRS,ioos:station:NOAA.NERRS:apaebwq:1,2017-01-04T13:45:00Z,29.7858,-84.8752,2.03,12.9,1111122 
NERRS,ioos:station:NOAA.NERRS:apaebwq:1,2017-01-04T14:45:00Z,29.7858,-84.8752,1.92,12.7,1111122 
NERRS,ioos:station:NOAA.NERRS:apaebwq:1,2017-01-04T15:45:00Z,29.7858,-84.8752,1.84,12.8,1111122 
NERRS,ioos:station:NOAA.NERRS:apaebwq:1,2017-01-04T16:45:00Z,29.7858,-84.8752,1.78,12.8,1111122 
NERRS,ioos:station:NOAA.NERRS:apaebwq:1,2017-01-04T17:45:00Z,29.7858,-84.8752,1.68,12.7,1111122 
NERRS,ioos:station:NOAA.NERRS:apaebwq:1,2017-01-04T18:45:00Z,29.7858,-84.8752,1.63,13.0,1111122 
NERRS,ioos:station:NOAA.NERRS:apaebwq:1,2017-01-04T19:45:00Z,29.7858,-84.8752,1.62,12.6,1111122 
NERRS,ioos:station:NOAA.NERRS:apaebwq:1,2017-01-04T20:45:00Z,29.7858,-84.8752,1.66,11.4,1111122 
NERRS,ioos:station:NOAA.NERRS:apaebwq:1,2017-01-04T21:45:00Z,29.7858,-84.8752,1.76,11.7,1111122 
NERRS,ioos:station:NOAA.NERRS:apaebwq:1,2017-01-04T22:45:00Z,29.7858,-84.8752,1.9,11.6,1111122 
NERRS,ioos:station:NOAA.NERRS:apaebwq:1,2017-01-04T23:45:00Z,29.7858,-84.8752,2.03,11.2,1111122 
NERRS,ioos:station:NOAA.NERRS:apaebwq:1,2017-01-05T00:45:00Z,29.7858,-84.8752,2.09,10.9,1111122 
NERRS,ioos:station:NOAA.NERRS:apaebwq:1,2017-01-05T01:45:00Z,29.7858,-84.8752,2.09,10.6,1111122 
NERRS,ioos:station:NOAA.NERRS:apaebwq:1,2017-01-05T02:45:00Z,29.7858,-84.8752,2.06,10.6,1111122 
NERRS,ioos:station:NOAA.NERRS:apaebwq:1,2017-01-05T03:45:00Z,29.7858,-84.8752,1.97,10.9,1111122 
NERRS,ioos:station:NOAA.NERRS:apaebwq:1,2017-01-05T04:45:00Z,29.7858,-84.8752,1.86,10.8,1111122 
NERRS,ioos:station:NOAA.NERRS:apaebwq:1,2017-01-05T05:45:00Z,29.7858,-84.8752,1.78,11.1,1111122 
NERRS,ioos:station:NOAA.NERRS:apaebwq:1,2017-01-05T06:45:00Z,29.7858,-84.8752,1.72,11.1,1111122 
NERRS,ioos:station:NOAA.NERRS:apaebwq:1,2017-01-05T07:45:00Z,29.7858,-84.8752,1.65,11.2,1111122 
NERRS,ioos:station:NOAA.NERRS:apaebwq:1,2017-01-05T08:45:00Z,29.7858,-84.8752,1.65,11.3,1111122 
NERRS,ioos:station:NOAA.NERRS:apaebwq:1,2017-01-05T09:45:00Z,29.7858,-84.8752,1.72,11.3,1111122 
NERRS,ioos:station:NOAA.NERRS:apaebwq:1,2017-01-05T10:45:00Z,29.7858,-84.8752,1.84,11.4,1111122 
NERRS,ioos:station:NOAA.NERRS:apaebwq:1,2017-01-05T11:45:00Z,29.7858,-84.8752,1.94,11.8,1111122 
NERRS,ioos:station:NOAA.NERRS:apaebwq:1,2017-01-05T12:45:00Z,29.7858,-84.8752,1.98,19.6,1111122 
NERRS,ioos:station:NOAA.NERRS:apaebwq:1,2017-01-05T13:45:00Z,29.7858,-84.8752,2.02,20.1,1111122 
NERRS,ioos:station:NOAA.NERRS:apaebwq:1,2017-01-05T14:45:00Z,29.7858,-84.8752,1.98,20.3,1111122 
NERRS,ioos:station:NOAA.NERRS:apaebwq:1,2017-01-05T15:45:00Z,29.7858,-84.8752,1.93,20.6,1111122 
NERRS,ioos:station:NOAA.NERRS:apaebwq:1,2017-01-05T16:45:00Z,29.7858,-84.8752,1.89,20.9,1111122 
NERRS,ioos:station:NOAA.NERRS:apaebwq:1,2017-01-05T17:45:00Z,29.7858,-84.8752,1.84,21.1,1111122 
NERRS,ioos:station:NOAA.NERRS:apaebwq:1,2017-01-05T18:45:00Z,29.7858,-84.8752,1.76,21.1,1111122 
NERRS,ioos:station:NOAA.NERRS:apaebwq:1,2017-01-05T19:45:00Z,29.7858,-84.8752,1.73,21.1,1111122 
NERRS,ioos:station:NOAA.NERRS:apaebwq:1,2017-01-05T20:45:00Z,29.7858,-84.8752,1.78,21.2,1111122 
NERRS,ioos:station:NOAA.NERRS:apaebwq:1,2017-01-05T21:45:00Z,29.7858,-84.8752,1.9,21.1,1111122 
NERRS,ioos:station:NOAA.NERRS:apaebwq:1,2017-01-05T22:45:00Z,29.7858,-84.8752,1.97,21.0,1111122 
NERRS,ioos:station:NOAA.NERRS:apaebwq:1,2017-01-05T23:45:00Z,29.7858,-84.8752,2.0,21.0,1111122 
NERRS,ioos:station:NOAA.NERRS:apaebwq:1,2017-01-06T00:45:00Z,29.7858,-84.8752,2.06,21.0,1111122 
NERRS,ioos:station:NOAA.NERRS:apaebwq:1,2017-01-06T01:45:00Z,29.7858,-84.8752,2.12,20.9,1111122 
NERRS,ioos:station:NOAA.NERRS:apaebwq:1,2017-01-06T02:45:00Z,29.7858,-84.8752,2.13,20.8,1111122 
NERRS,ioos:station:NOAA.NERRS:apaebwq:1,2017-01-06T03:45:00Z,29.7858,-84.8752,2.07,20.5,1111122 
NERRS,ioos:station:NOAA.NERRS:apaebwq:1,2017-01-06T04:45:00Z,29.7858,-84.8752,1.98,20.4,1111122 
NERRS,ioos:station:NOAA.NERRS:apaebwq:1,2017-01-06T05:45:00Z,29.7858,-84.8752,1.9,20.3,1111122 
NERRS,ioos:station:NOAA.NERRS:apaebwq:1,2017-01-06T06:45:00Z,29.7858,-84.8752,1.83,20.2,1111122 
NERRS,ioos:station:NOAA.NERRS:apaebwq:1,2017-01-06T07:45:00Z,29.7858,-84.8752,1.74,20.0,1111122 
NERRS,ioos:station:NOAA.NERRS:apaebwq:1,2017-01-06T08:45:00Z,29.7858,-84.8752,1.69,19.8,1111122 
NERRS,ioos:station:NOAA.NERRS:apaebwq:1,2017-01-06T09:45:00Z,29.7858,-84.8752,1.72,19.4,1111122 
NERRS,ioos:station:NOAA.NERRS:apaebwq:1,2017-01-06T10:45:00Z,29.7858,-84.8752,1.8,19.3,1111122 
NERRS,ioos:station:NOAA.NERRS:apaebwq:1,2017-01-06T11:45:00Z,29.7858,-84.8752,1.9,19.5,1111122 
NERRS,ioos:station:NOAA.NERRS:apaebwq:1,2017-01-06T12:45:00Z,29.7858,-84.8752,1.97,19.5,1111122 
NERRS,ioos:station:NOAA.NERRS:apaebwq:1,2017-01-06T13:45:00Z,29.7858,-84.8752,2.05,19.5,1111122 
NERRS,ioos:station:NOAA.NERRS:apaebwq:1,2017-01-06T14:45:00Z,29.7858,-84.8752,2.1,19.6,1111122 
NERRS,ioos:station:NOAA.NERRS:apaebwq:1,2017-01-06T15:45:00Z,29.7858,-84.8752,2.12,19.7,1111122 
NERRS,ioos:station:NOAA.NERRS:apaebwq:1,2017-01-06T16:45:00Z,29.7858,-84.8752,2.08,19.6,1111122 
NERRS,ioos:station:NOAA.NERRS:apaebwq:1,2017-01-06T17:45:00Z,29.7858,-84.8752,2.07,19.3,1111122 
NERRS,ioos:station:NOAA.NERRS:apaebwq:1,2017-01-06T18:45:00Z,29.7858,-84.8752,2.0,19.4,1111122 
NERRS,ioos:station:NOAA.NERRS:apaebwq:1,2017-01-06T19:45:00Z,29.7858,-84.8752,1.95,19.4,1111122 
NERRS,ioos:station:NOAA.NERRS:apaebwq:1,2017-01-06T20:45:00Z,29.7858,-84.8752,1.93,19.1,1111122 
NERRS,ioos:station:NOAA.NERRS:apaebwq:1,2017-01-06T21:45:00Z,29.7858,-84.8752,1.97,18.5,1111122 
NERRS,ioos:station:NOAA.NERRS:apaebwq:1,2017-01-06T23:45:00Z,29.7858,-84.8752,2.14,18.2,1111122 
NERRS,ioos:station:NOAA.NERRS:apaebwq:1,2017-01-07T00:45:00Z,29.7858,-84.8752,2.24,18.3,1111122 
NERRS,ioos:station:NOAA.NERRS:apaebwq:1,2017-01-07T01:45:00Z,29.7858,-84.8752,2.32,17.9,1111122 
NERRS,ioos:station:NOAA.NERRS:apaebwq:1,2017-01-07T02:45:00Z,29.7858,-84.8752,2.36,17.8,1111122 
NERRS,ioos:station:NOAA.NERRS:apaebwq:1,2017-01-07T03:45:00Z,29.7858,-84.8752,2.33,17.7,1111122 
NERRS,ioos:station:NOAA.NERRS:apaebwq:1,2017-01-07T04:45:00Z,29.7858,-84.8752,2.28,17.6,1111122 
NERRS,ioos:station:NOAA.NERRS:apaebwq:1,2017-01-07T05:45:00Z,29.7858,-84.8752,2.17,17.9,1111122 
NERRS,ioos:station:NOAA.NERRS:apaebwq:1,2017-01-07T06:45:00Z,29.7858,-84.8752,2.16,17.7,1111122 
NERRS,ioos:station:NOAA.NERRS:apaebwq:1,2017-01-07T07:45:00Z,29.7858,-84.8752,2.04,18.4,1111122 
NERRS,ioos:station:NOAA.NERRS:apaebwq:1,2017-01-07T08:45:00Z,29.7858,-84.8752,1.98,18.1,1111122 
NERRS,ioos:station:NOAA.NERRS:apaebwq:1,2017-01-07T09:45:00Z,29.7858,-84.8752,1.89,12.2,1111122 
NERRS,ioos:station:NOAA.NERRS:apaebwq:1,2017-01-07T10:45:00Z,29.7858,-84.8752,1.85,12.3,1111122 
NERRS,ioos:station:NOAA.NERRS:apaebwq:1,2017-01-07T11:45:00Z,29.7858,-84.8752,1.78,12.4,1111122 
NERRS,ioos:station:NOAA.NERRS:apaebwq:1,2017-01-07T12:45:00Z,29.7858,-84.8752,1.74,12.6,1111122 
NERRS,ioos:station:NOAA.NERRS:apaebwq:1,2017-01-07T13:45:00Z,29.7858,-84.8752,1.73,12.7,1111122 
NERRS,ioos:station:NOAA.NERRS:apaebwq:1,2017-01-07T14:45:00Z,29.7858,-84.8752,1.72,12.5,1111122 
NERRS,ioos:station:NOAA.NERRS:apaebwq:1,2017-01-07T15:45:00Z,29.7858,-84.8752,1.8,12.2,1111122 
NERRS,ioos:station:NOAA.NERRS:apaebwq:1,2017-01-07T16:45:00Z,29.7858,-84.8752,1.84,11.9,1111122 
NERRS,ioos:station:NOAA.NERRS:apaebwq:1,2017-01-07T17:45:00Z,29.7858,-84.8752,1.77,17.3,1111122 
NERRS,ioos:station:NOAA.NERRS:apaebwq:1,2017-01-07T18:45:00Z,29.7858,-84.8752,1.71,16.6,1111122 
NERRS,ioos:station:NOAA.NERRS:apaebwq:1,2017-01-07T19:45:00Z,29.7858,-84.8752,1.64,16.5,1111122 
NERRS,ioos:station:NOAA.NERRS:apaebwq:1,2017-01-07T20:45:00Z,29.7858,-84.8752,1.61,14.6,1111122 
NERRS,ioos:station:NOAA.NERRS:apaebwq:1,2017-01-07T21:45:00Z,29.7858,-84.8752,1.61,12.8,1111122 
NERRS,ioos:station:NOAA.NERRS:apaebwq:1,2017-01-07T22:45:00Z,29.7858,-84.8752,1.64,12.3,1111122 
NERRS,ioos:station:NOAA.NERRS:apaebwq:1,2017-01-07T23:45:00Z,29.7858,-84.8752,1.69,12.7,1111122 
NERRS,ioos:station:NOAA.NERRS:apaebwq:1,2017-01-08T00:45:00Z,29.7858,-84.8752,1.76,12.8,1111122 
NERRS,ioos:station:NOAA.NERRS:apaebwq:1,2017-01-08T01:45:00Z,29.7858,-84.8752,1.83,13.1,1111122 
NERRS,ioos:station:NOAA.NERRS:apaebwq:1,2017-01-08T02:45:00Z,29.7858,-84.8752,1.86,13.7,1111122 
NERRS,ioos:station:NOAA.NERRS:apaebwq:1,2017-01-08T03:45:00Z,29.7858,-84.8752,1.83,14.3,1111122 
NERRS,ioos:station:NOAA.NERRS:apaebwq:1,2017-01-08T04:45:00Z,29.7858,-84.8752,1.75,13.4,1111122 
NERRS,ioos:station:NOAA.NERRS:apaebwq:1,2017-01-08T05:45:00Z,29.7858,-84.8752,1.64,12.8,1111122 
NERRS,ioos:station:NOAA.NERRS:apaebwq:1,2017-01-08T06:45:00Z,29.7858,-84.8752,1.56,12.5,1111122 
NERRS,ioos:station:NOAA.NERRS:apaebwq:1,2017-01-08T07:45:00Z,29.7858,-84.8752,1.5,12.5,1111122 
NERRS,ioos:station:NOAA.NERRS:apaebwq:1,2017-01-08T08:45:00Z,29.7858,-84.8752,1.43,12.7,1111122 
NERRS,ioos:station:NOAA.NERRS:apaebwq:1,2017-01-08T09:45:00Z,29.7858,-84.8752,1.36,12.7,1111122 
NERRS,ioos:station:NOAA.NERRS:apaebwq:1,2017-01-08T10:45:00Z,29.7858,-84.8752,1.31,12.5,1111122 
NERRS,ioos:station:NOAA.NERRS:apaebwq:1,2017-01-08T13:45:00Z,29.7858,-84.8752,1.25,12.9,1111122 
NERRS,ioos:station:NOAA.NERRS:apaebwq:1,2017-01-08T14:45:00Z,29.7858,-84.8752,1.31,12.7,1111122 
NERRS,ioos:station:NOAA.NERRS:apaebwq:1,2017-01-08T15:45:00Z,29.7858,-84.8752,1.41,12.8,1111122 
NERRS,ioos:station:NOAA.NERRS:apaebwq:1,2017-01-08T16:45:00Z,29.7858,-84.8752,1.52,12.5,1111122 
NERRS,ioos:station:NOAA.NERRS:apaebwq:1,2017-01-08T17:45:00Z,29.7858,-84.8752,1.56,12.8,1111122 
NERRS,ioos:station:NOAA.NERRS:apaebwq:1,2017-01-08T18:45:00Z,29.7858,-84.8752,1.65,13.1,1111122 
NERRS,ioos:station:NOAA.NERRS:apaebwq:1,2017-01-08T19:45:00Z,29.7858,-84.8752,1.77,11.1,1111122 
NERRS,ioos:station:NOAA.NERRS:apaebwq:1,2017-01-08T20:45:00Z,29.7858,-84.8752,1.82,11.8,1111122 
NERRS,ioos:station:NOAA.NERRS:apaebwq:1,2017-01-08T21:45:00Z,29.7858,-84.8752,1.85,13.1,1111122 
NERRS,ioos:station:NOAA.NERRS:apaebwq:1,2017-01-08T22:45:00Z,29.7858,-84.8752,1.88,13.0,1111122 
NERRS,ioos:station:NOAA.NERRS:apaebwq:1,2017-01-08T23:45:00Z,29.7858,-84.8752,1.92,12.6,1111122 
NERRS,ioos:station:NOAA.NERRS:apaebwq:1,2017-01-09T00:45:00Z,29.7858,-84.8752,1.95,13.2,1111122 
NERRS,ioos:station:NOAA.NERRS:apaebwq:1,2017-01-09T01:45:00Z,29.7858,-84.8752,2.0,13.1,1111122 
NERRS,ioos:station:NOAA.NERRS:apaebwq:1,2017-01-09T02:45:00Z,29.7858,-84.8752,2.09,12.6,1111122 
NERRS,ioos:station:NOAA.NERRS:apaebwq:1,2017-01-09T03:45:00Z,29.7858,-84.8752,2.14,12.4,1111122 
NERRS,ioos:station:NOAA.NERRS:apaebwq:1,2017-01-09T04:45:00Z,29.7858,-84.8752,2.1,12.8,1111122 
NERRS,ioos:station:NOAA.NERRS:apaebwq:1,2017-01-09T05:45:00Z,29.7858,-84.8752,2.05,12.9,1111122 
NERRS,ioos:station:NOAA.NERRS:apaebwq:1,2017-01-09T06:45:00Z,29.7858,-84.8752,1.97,12.9,1111122 
NERRS,ioos:station:NOAA.NERRS:apaebwq:1,2017-01-09T07:45:00Z,29.7858,-84.8752,1.91,12.9,1111122 
NERRS,ioos:station:NOAA.NERRS:apaebwq:1,2017-01-09T08:45:00Z,29.7858,-84.8752,1.86,12.9,1111122 
NERRS,ioos:station:NOAA.NERRS:apaebwq:1,2017-01-09T09:45:00Z,29.7858,-84.8752,1.79,12.9,1111122 
NERRS,ioos:station:NOAA.NERRS:apaebwq:1,2017-01-09T10:45:00Z,29.7858,-84.8752,1.7,12.4,1111122 
NERRS,ioos:station:NOAA.NERRS:apaebwq:1,2017-01-09T11:45:00Z,29.7858,-84.8752,1.63,12.5,1111122 
NERRS,ioos:station:NOAA.NERRS:apaebwq:1,2017-01-09T12:45:00Z,29.7858,-84.8752,1.58,12.6,1111122 
NERRS,ioos:station:NOAA.NERRS:apaebwq:1,2017-01-09T13:45:00Z,29.7858,-84.8752,1.55,12.8,1111122 
NERRS,ioos:station:NOAA.NERRS:apaebwq:1,2017-01-09T14:45:00Z,29.7858,-84.8752,1.58,12.8,1111122 
NERRS,ioos:station:NOAA.NERRS:apaebwq:1,2017-01-09T15:45:00Z,29.7858,-84.8752,1.69,12.5,1111122 
NERRS,ioos:station:NOAA.NERRS:apaebwq:1,2017-01-09T16:45:00Z,29.7858,-84.8752,1.83,12.2,1111122 
NERRS,ioos:station:NOAA.NERRS:apaebwq:1,2017-01-09T17:45:00Z,29.7858,-84.8752,1.95,11.2,1111122 
NERRS,ioos:station:NOAA.NERRS:apaebwq:1,2017-01-09T18:45:00Z,29.7858,-84.8752,2.05,11.4,1111122 
NERRS,ioos:station:NOAA.NERRS:apaebwq:1,2017-01-09T19:45:00Z,29.7858,-84.8752,2.1,11.6,1111122 
NERRS,ioos:station:NOAA.NERRS:apaebwq:1,2017-01-09T20:45:00Z,29.7858,-84.8752,2.09,11.5,1111122 
NERRS,ioos:station:NOAA.NERRS:apaebwq:1,2017-01-09T21:45:00Z,29.7858,-84.8752,2.08,11.7,1111122 
NERRS,ioos:station:NOAA.NERRS:apaebwq:1,2017-01-09T22:45:00Z,29.7858,-84.8752,2.11,12.8,1111122 
NERRS,ioos:station:NOAA.NERRS:apaebwq:1,2017-01-09T23:45:00Z,29.7858,-84.8752,2.1,13.2,1111122 
NERRS,ioos:station:NOAA.NERRS:apaebwq:1,2017-01-10T00:45:00Z,29.7858,-84.8752,2.06,13.1,1111122 
NERRS,ioos:station:NOAA.NERRS:apaebwq:1,2017-01-10T01:45:00Z,29.7858,-84.8752,2.05,13.1,1111122 
NERRS,ioos:station:NOAA.NERRS:apaebwq:1,2017-01-10T02:45:00Z,29.7858,-84.8752,2.09,13.1,1111122 
NERRS,ioos:station:NOAA.NERRS:apaebwq:1,2017-01-10T03:45:00Z,29.7858,-84.8752,2.21,12.2,1111122 
NERRS,ioos:station:NOAA.NERRS:apaebwq:1,2017-01-10T04:45:00Z,29.7858,-84.8752,2.27,12.5,1111122 
NERRS,ioos:station:NOAA.NERRS:apaebwq:1,2017-01-10T05:45:00Z,29.7858,-84.8752,2.21,12.6,1111122 
NERRS,ioos:station:NOAA.NERRS:apaebwq:1,2017-01-10T06:45:00Z,29.7858,-84.8752,2.14,12.4,1111122 
NERRS,ioos:station:NOAA.NERRS:apaebwq:1,2017-01-10T07:45:00Z,29.7858,-84.8752,2.07,12.2,1111122 
NERRS,ioos:station:NOAA.NERRS:apaebwq:1,2017-01-10T08:45:00Z,29.7858,-84.8752,2.01,12.2,1111122 
NERRS,ioos:station:NOAA.NERRS:apaebwq:1,2017-01-10T09:45:00Z,29.7858,-84.8752,1.94,12.2,1111122 
NERRS,ioos:station:NOAA.NERRS:apaebwq:1,2017-01-10T10:45:00Z,29.7858,-84.8752,1.82,12.2,1111122 
NERRS,ioos:station:NOAA.NERRS:apaebwq:1,2017-01-10T11:45:00Z,29.7858,-84.8752,1.72,12.2,1111122 
NERRS,ioos:station:NOAA.NERRS:apaebwq:1,2017-01-10T12:45:00Z,29.7858,-84.8752,1.67,12.2,1111122 
NERRS,ioos:station:NOAA.NERRS:apaebwq:1,2017-01-10T13:45:00Z,29.7858,-84.8752,1.63,12.2,1111122 
NERRS,ioos:station:NOAA.NERRS:apaebwq:1,2017-01-10T14:45:00Z,29.7858,-84.8752,1.65,12.2,1111122 
NERRS,ioos:station:NOAA.NERRS:apaebwq:1,2017-01-10T15:45:00Z,29.7858,-84.8752,1.74,11.6,1111122 
NERRS,ioos:station:NOAA.NERRS:apaebwq:1,2017-01-10T16:45:00Z,29.7858,-84.8752,1.93,9.8,1111122 
NERRS,ioos:station:NOAA.NERRS:apaebwq:1,2017-01-10T17:45:00Z,29.7858,-84.8752,2.12,8.5,1111122 
NERRS,ioos:station:NOAA.NERRS:apaebwq:1,2017-01-10T18:45:00Z,29.7858,-84.8752,2.25,8.1,1111122 
NERRS,ioos:station:NOAA.NERRS:apaebwq:1,2017-01-10T19:45:00Z,29.7858,-84.8752,2.29,10.4,1111122 
NERRS,ioos:station:NOAA.NERRS:apaebwq:1,2017-01-10T20:45:00Z,29.7858,-84.8752,2.31,10.5,1111122 
NERRS,ioos:station:NOAA.NERRS:apaebwq:1,2017-01-10T21:45:00Z,29.7858,-84.8752,2.31,10.4,1111122 
NERRS,ioos:station:NOAA.NERRS:apaebwq:1,2017-01-10T22:45:00Z,29.7858,-84.8752,2.3,10.5,1111122 
NERRS,ioos:station:NOAA.NERRS:apaebwq:1,2017-01-10T23:45:00Z,29.7858,-84.8752,2.29,10.5,1111122 
NERRS,ioos:station:NOAA.NERRS:apaebwq:1,2017-01-11T00:45:00Z,29.7858,-84.8752,2.25,10.5,1111122 
NERRS,ioos:station:NOAA.NERRS:apaebwq:1,2017-01-11T01:45:00Z,29.7858,-84.8752,2.25,10.5,1111122 
NERRS,ioos:station:NOAA.NERRS:apaebwq:1,2017-01-11T02:45:00Z,29.7858,-84.8752,2.29,10.5,1111122 
NERRS,ioos:station:NOAA.NERRS:apaebwq:1,2017-01-11T03:45:00Z,29.7858,-84.8752,2.35,10.3,1111122 
NERRS,ioos:station:NOAA.NERRS:apaebwq:1,2017-01-11T04:45:00Z,29.7858,-84.8752,2.43,10.2,1111122 
NERRS,ioos:station:NOAA.NERRS:apaebwq:1,2017-01-11T05:45:00Z,29.7858,-84.8752,2.47,10.0,1111122 
NERRS,ioos:station:NOAA.NERRS:apaebwq:1,2017-01-11T06:45:00Z,29.7858,-84.8752,2.43,10.6,1111122 
NERRS,ioos:station:NOAA.NERRS:apaebwq:1,2017-01-11T07:45:00Z,29.7858,-84.8752,2.37,10.5,1111122 
NERRS,ioos:station:NOAA.NERRS:apaebwq:1,2017-01-11T08:45:00Z,29.7858,-84.8752,2.28,10.3,1111122 
NERRS,ioos:station:NOAA.NERRS:apaebwq:1,2017-01-11T09:45:00Z,29.7858,-84.8752,2.17,10.3,1111122 
NERRS,ioos:station:NOAA.NERRS:apaebwq:1,2017-01-11T10:45:00Z,29.7858,-84.8752,2.02,10.7,1111122 